This demonstration page uses our WeatherBlox Daily Observations layout. Learn more.

Left ArrowRight Arrow

Hourly Observations for February 21, 2022

Temp ( °F °C ) Dew Point ( °F °C ) Humidity (%) Winds ( mph kmh ) Pressure ( in mb ) Visibility ( mi km ) Precip ( " mm )
12:56 am 00:56 Clear 38 3.4 26 -3.4 61 61 NE 8 13 29.82 1010 10 16 0.00 0.00
1:56 am 01:56 Clear 35 1.9 27 -3 70 70 ENE 8 13 29.81 1010 10 16 0.00 0.00
2:56 am 02:56 Clear 34 1.1 27 -3 74 74 E 8 13 29.79 1009 10 16 0.00 0.00
3:56 am 03:56 Clear 32 0.2 26 -3.2 78 78 ENE 6 9 29.77 1008 10 16 0.00 0.00
4:56 am 04:56 Clear 32 0.2 27 -3 79 79 E 7 11 29.74 1007 10 16 0.00 0.00
5:56 am 05:56 Clear 31 -0.4 26 -3.4 80 80 E 6 9 29.75 1007 10 16 0.00 0.00
6:56 am 06:56 Mostly Clear 32 0.1 26 -3.3 78 78 ENE 5 7 29.72 1006 10 16 0.00 0.00
7:56 am 07:56 Sunny 32 0.1 26 -3.3 78 78 E 5 7 29.72 1007 10 16 0.00 0.00
8:56 am 08:56 Sunny 39 3.8 29 -1.8 67 67 Calm 29.72 1007 10 16 0.00 0.00
9:56 am 09:56 Sunny 47 8.1 32 -0.2 56 56 E 6 9 29.68 1005 10 16 0.00 0.00
10:56 am 10:56 Sunny 51 10.3 35 1.4 54 54 Calm 29.67 1005 10 16 0.00 0.00
11:56 am 11:56 Sunny 53 11.5 35 1.7 51 51 Calm 29.67 1005 10 16 0.00 0.00
12:56 pm 12:56 Mostly Cloudy 55 12.5 35 1.8 48 48 NW 14 22 29.65 1004 9 14 0.00 0.00
1:56 pm 13:56 Cloudy 50 9.8 31 -0.7 48 48 NW 16 26 29.67 1005 10 16 0.00 0.00
2:56 pm 14:56 Cloudy 48 9 30 -0.9 50 50 NW 18 30 29.68 1005 10 16 0.00 0.00
3:56 pm 15:56 Mostly Cloudy 46 7.7 29 -1.8 51 51 NNW 18 30 29.72 1007 10 16 0.00 0.00
4:56 pm 16:56 Partly Cloudy 38 3.1 22 -5.6 53 53 NNW 17 28 29.77 1008 10 16 0.00 0.00
5:56 pm 17:56 Mostly Cloudy 31 -0.5 20 -6.7 63 63 NNW 23 37 29.80 1009 10 16 0.00 0.00
6:56 pm 18:56 Cloudy 28 -2 21 -6 74 74 N 15 24 29.83 1010 10 16 0.00 0.00
7:56 pm 19:56 Cloudy 27 -2.9 21 -6 79 79 NNW 21 33 29.87 1011 10 16 0.00 0.00
8:56 pm 20:56 Cloudy 26 -3.3 21 -6.1 81 81 NNW 17 28 29.88 1012 10 16 0.00 0.00
9:56 pm 21:56 Mostly Clear with Mist and Fog 25 -3.9 21 -6.1 85 85 NNW 18 30 29.89 1012 7 11 0.00 0.00
10:22 pm 22:22 Cloudy with Light Freezing Drizzle 25 -4 21 -6 86 86 NNW 16 26 29.88 1012 7 11 0.00 0.00
10:56 pm 22:56 Cloudy with Mist and Fog 24 -4.4 20 -6.4 86 86 NNW 17 28 29.87 1011 6 10 0.00 0.00
11:56 pm 23:56 Cloudy with Mist and Fog 23 -4.9 20 -6.6 88 88 NNW 13 20 29.89 1012 5 8 0.00 0.00

Powered by AerisWeather